When you browse on this site, cookies collect data to enhance your experience and personalize the content and advertising you see.
Visit our Privacy Policy to learn more. By continuing to use the site, you agree to this use of cookies and data.
  • en France
  • Liste des pays
  • À 7 jours
  • Température de l'eau
  • Carte météo
  • Widgets météo
  • user-avatar
    Se connecter

    Météo par heure à Liverpool

    Ce jour, 25 Mai, Lundi

    Heure Température Précipitation Vent Pression Humidité
    00:00 +4°C° 0 mm 1 m/s 769 mmHg 65%
    01:00 +4°C° 0 mm 1 m/s 768 mmHg 66%
    02:00 +3°C° 0 mm 0 m/s 768 mmHg 67%
    03:00 +3°C° 0 mm 0 m/s 768 mmHg 67%
    04:00 +4°C° 0 mm 1 m/s 768 mmHg 66%
    05:00 +4°C° 0 mm 1 m/s 768 mmHg 66%
    06:00 +6°C° 0 mm 1 m/s 768 mmHg 61%
    07:00 +8°C° 0 mm 1 m/s 769 mmHg 57%
    08:00 +10°C° 0 mm 2 m/s 769 mmHg 52%
    09:00 +12°C° 0 mm 2 m/s 769 mmHg 50%
    10:00 +12°C° 0 mm 3 m/s 768 mmHg 48%
    11:00 +13°C° 0 mm 3 m/s 768 mmHg 46%
    12:00 +14°C° 0 mm 3 m/s 768 mmHg 48%
    13:00 +14°C° 0 mm 4 m/s 768 mmHg 49%
    14:00 +14°C° 0 mm 4 m/s 768 mmHg 51%
    15:00 +14°C° 0 mm 4 m/s 768 mmHg 56%
    16:00 +14°C° 0 mm 4 m/s 768 mmHg 61%
    17:00 +13°C° 0 mm 4 m/s 767 mmHg 66%
    18:00 +11°C° 0 mm 3 m/s 767 mmHg 76%
    19:00 +10°C° 0 mm 3 m/s 767 mmHg 86%
    20:00 +8°C° 0 mm 2 m/s 767 mmHg 97%
    21:00 +8°C° 0 mm 2 m/s 767 mmHg 97%
    22:00 +8°C° 0 mm 2 m/s 767 mmHg 98%
    23:00 +8°C° 0 mm 2 m/s 767 mmHg 99%

    Demain, 26 Mai, Mardi

    Heure Température Précipitation Vent Pression Humidité
    00:00 +9°C° 0 mm 2 m/s 767 mmHg 99%
    01:00 +10°C° 0 mm 3 m/s 767 mmHg 99%
    02:00 +11°C° 0 mm 3 m/s 767 mmHg 98%
    03:00 +12°C° 0 mm 3 m/s 767 mmHg 99%
    04:00 +12°C° 0 mm 3 m/s 766 mmHg 99%
    05:00 +12°C° 0 mm 3 m/s 766 mmHg 99%
    06:00 +13°C° 0 mm 3 m/s 767 mmHg 97%
    07:00 +14°C° 0 mm 3 m/s 767 mmHg 95%
    08:00 +16°C° 0 mm 3 m/s 767 mmHg 93%
    09:00 +17°C° 0 mm 3 m/s 767 mmHg 89%
    10:00 +18°C° 0 mm 4 m/s 767 mmHg 85%
    11:00 +19°C° 0 mm 4 m/s 766 mmHg 82%
    12:00 +19°C° 0 mm 4 m/s 766 mmHg 81%
    13:00 +20°C° 0 mm 5 m/s 766 mmHg 81%
    14:00 +20°C° 0 mm 5 m/s 766 mmHg 81%
    15:00 +20°C° 0 mm 5 m/s 766 mmHg 82%
    16:00 +19°C° 0 mm 5 m/s 766 mmHg 84%
    17:00 +19°C° 0 mm 5 m/s 766 mmHg 85%
    18:00 +19°C° 0 mm 5 m/s 766 mmHg 88%
    19:00 +17°C° 0 mm 5 m/s 766 mmHg 90%
    20:00 +16°C° 0 mm 5 m/s 766 mmHg 92%
    21:00 +16°C° 0 mm 5 m/s 766 mmHg 93%
    22:00 +16°C° 0 mm 5 m/s 766 mmHg 93%
    23:00 +16°C° 0 mm 5 m/s 766 mmHg 94%

    Après-demain, 27 Mai, Mercredi

    Heure Température Précipitation Vent Pression Humidité
    00:00 +16°C° 0 mm 5 m/s 766 mmHg 94%
    01:00 +16°C° 0 mm 5 m/s 765 mmHg 93%
    02:00 +16°C° 0 mm 5 m/s 765 mmHg 93%
    03:00 +15°C° 0 mm 5 m/s 765 mmHg 93%
    04:00 +15°C° 0 mm 4 m/s 765 mmHg 94%
    05:00 +15°C° 0 mm 4 m/s 765 mmHg 94%
    06:00 +15°C° 0 mm 4 m/s 765 mmHg 92%
    07:00 +15°C° 0 mm 5 m/s 765 mmHg 90%
    08:00 +16°C° 0 mm 5 m/s 766 mmHg 89%
    09:00 +19°C° 0 mm 5 m/s 765 mmHg 82%
    10:00 +20°C° 0 mm 5 m/s 765 mmHg 75%
    11:00 +22°C° 0 mm 5 m/s 765 mmHg 68%
    12:00 +23°C° 0 mm 6 m/s 765 mmHg 65%
    13:00 +26°C° 0 mm 6 m/s 765 mmHg 61%
    14:00 +27°C° 0 mm 6 m/s 765 mmHg 58%
    15:00 +26°C° 0 mm 6 m/s 765 mmHg 60%
    16:00 +24°C° 0 mm 7 m/s 765 mmHg 62%
    17:00 +24°C° 0 mm 7 m/s 764 mmHg 64%
    18:00 +22°C° 0 mm 6 m/s 765 mmHg 72%
    19:00 +20°C° 0 mm 6 m/s 765 mmHg 80%
    20:00 +17°C° 0 mm 5 m/s 765 mmHg 88%
    21:00 +16°C° 0 mm 6 m/s 765 mmHg 90%
    22:00 +16°C° 0 mm 6 m/s 765 mmHg 92%
    23:00 +16°C° 0 mm 6 m/s 765 mmHg 94%

    28 Mai, Jeudi

    Heure Température Précipitation Vent Pression Humidité
    00:00 +16°C° 0 mm 6 m/s 764 mmHg 93%
    01:00 +16°C° 0 mm 6 m/s 764 mmHg 92%
    02:00 +16°C° 0 mm 6 m/s 764 mmHg 91%
    03:00 +16°C° 0 mm 6 m/s 764 mmHg 91%
    04:00 +16°C° 0 mm 6 m/s 764 mmHg 91%
    05:00 +16°C° 0 mm 6 m/s 764 mmHg 91%
    06:00 +17°C° 0 mm 6 m/s 764 mmHg 89%
    07:00 +17°C° 0 mm 6 m/s 764 mmHg 88%
    08:00 +17°C° 0 mm 6 m/s 764 mmHg 86%
    09:00 +20°C° 0 mm 7 m/s 764 mmHg 81%
    10:00 +21°C° 0 mm 7 m/s 763 mmHg 75%
    11:00 +23°C° 0 mm 7 m/s 763 mmHg 70%
    12:00 +23°C° 0 mm 7 m/s 763 mmHg 68%
    13:00 +24°C° 0 mm 8 m/s 763 mmHg 66%
    14:00 +24°C° 0 mm 8 m/s 762 mmHg 65%
    15:00 +23°C° 0 mm 8 m/s 762 mmHg 67%
    16:00 +23°C° 0 mm 8 m/s 762 mmHg 70%
    17:00 +22°C° 0 mm 8 m/s 762 mmHg 73%
    18:00 +20°C° 0 mm 7 m/s 762 mmHg 77%
    19:00 +18°C° 0 mm 7 m/s 762 mmHg 81%
    20:00 +16°C° 0 mm 7 m/s 762 mmHg 86%
    21:00 +16°C° 0 mm 7 m/s 762 mmHg 87%
    22:00 +16°C° 0 mm 7 m/s 762 mmHg 89%
    23:00 +15°C° 0 mm 6 m/s 762 mmHg 90%

    29 Mai, Vendredi

    Heure Température Précipitation Vent Pression Humidité
    00:00 +15°C° 0 mm 6 m/s 762 mmHg 90%
    01:00 +15°C° 0 mm 6 m/s 762 mmHg 90%
    02:00 +15°C° 0 mm 6 m/s 762 mmHg 90%
    03:00 +15°C° 0 mm 6 m/s 762 mmHg 90%
    04:00 +16°C° 0 mm 6 m/s 761 mmHg 90%
    05:00 +16°C° 0 mm 6 m/s 761 mmHg 90%
    06:00 +16°C° 0 mm 6 m/s 761 mmHg 89%
    07:00 +17°C° 0 mm 6 m/s 761 mmHg 89%
    08:00 +17°C° 0 mm 6 m/s 762 mmHg 88%
    09:00 +19°C° 0 mm 6 m/s 761 mmHg 84%
    10:00 +20°C° 0 mm 7 m/s 761 mmHg 80%
    11:00 +21°C° 0 mm 7 m/s 761 mmHg 77%
    12:00 +20°C° 0.1 mm 7 m/s 760 mmHg 80%
    13:00 +20°C° 0.1 mm 7 m/s 760 mmHg 83%
    14:00 +18°C° 0.1 mm 7 m/s 760 mmHg 86%
    15:00 +18°C° 0 mm 7 m/s 759 mmHg 85%
    16:00 +18°C° 0 mm 8 m/s 759 mmHg 84%
    17:00 +18°C° 0 mm 8 m/s 759 mmHg 84%
    18:00 +18°C° 0 mm 8 m/s 758 mmHg 85%
    19:00 +17°C° 0 mm 8 m/s 758 mmHg 86%
    20:00 +17°C° 0 mm 8 m/s 758 mmHg 87%
    21:00 +17°C° 0.1 mm 8 m/s 758 mmHg 88%
    22:00 +17°C° 0.1 mm 8 m/s 758 mmHg 89%
    23:00 +17°C° 0.1 mm 8 m/s 757 mmHg 91%

    30 Mai, Samedi

    Heure Température Précipitation Vent Pression Humidité
    00:00 +17°C° 0.1 mm 8 m/s 757 mmHg 91%
    01:00 +17°C° 0.1 mm 8 m/s 757 mmHg 92%
    02:00 +16°C° 0.1 mm 8 m/s 756 mmHg 92%
    03:00 +16°C° 0.3 mm 8 m/s 756 mmHg 93%
    04:00 +16°C° 0.3 mm 7 m/s 756 mmHg 94%
    05:00 +16°C° 0.3 mm 7 m/s 756 mmHg 95%
    06:00 +16°C° 0.1 mm 7 m/s 756 mmHg 95%
    07:00 +16°C° 0.1 mm 7 m/s 756 mmHg 94%
    08:00 +16°C° 0.1 mm 7 m/s 756 mmHg 94%
    09:00 +16°C° 0.4 mm 7 m/s 756 mmHg 95%
    10:00 +16°C° 0.4 mm 7 m/s 756 mmHg 96%
    11:00 +15°C° 0.4 mm 7 m/s 756 mmHg 97%
    12:00 +16°C° 0.3 mm 7 m/s 755 mmHg 97%
    13:00 +16°C° 0.3 mm 7 m/s 755 mmHg 96%
    14:00 +16°C° 0.3 mm 7 m/s 755 mmHg 96%
    15:00 +16°C° 0.1 mm 7 m/s 755 mmHg 96%
    16:00 +16°C° 0.1 mm 7 m/s 755 mmHg 96%
    17:00 +16°C° 0.1 mm 7 m/s 754 mmHg 96%
    18:00 +16°C° 0.2 mm 7 m/s 754 mmHg 96%
    19:00 +16°C° 0.2 mm 7 m/s 754 mmHg 96%
    20:00 +15°C° 0.2 mm 7 m/s 754 mmHg 96%
    21:00 +15°C° 0.1 mm 7 m/s 754 mmHg 96%
    22:00 +15°C° 0.1 mm 6 m/s 754 mmHg 97%
    23:00 +15°C° 0.1 mm 6 m/s 754 mmHg 97%
    Voir plus